| time (UTC) | temp F | wind direction | speed MPH | gust MPH | rain 1hr in | rain 24hr in | rain mn in | humidity % | barometer mb |
| 20260901071557 | 65 | 124 | 0.0 | 0.0 | 0.00 | 0.01 | 0.00 | 96 | 1016.1 |
| 20260901070057 | 65 | 124 | 0.0 | 0.0 | 0.00 | 0.01 | 0.00 | 96 | 1016.3 |
| 20260901064553 | 65 | 124 | 0.0 | 0.0 | 0.00 | 0.01 | 0.00 | 96 | 1016.5 |
| 20260901063053 | 65 | 124 | 0.0 | 0.0 | 0.00 | 0.01 | 0.00 | 96 | 1016.5 |
| 20260901061551 | 65 | 124 | 0.0 | 0.0 | 0.00 | 0.01 | 0.00 | 96 | 1016.8 |
| 20260901060051 | 65 | 124 | 0.0 | 0.0 | 0.00 | 0.01 | 0.00 | 96 | 1016.9 |
| 20260901054549 | 65 | 124 | 0.0 | 0.0 | 0.00 | 0.01 | 0.00 | 96 | 1016.7 |
| 20260901053115 | 65 | 124 | 0.0 | 0.0 | 0.00 | 0.01 | 0.00 | 96 | 1017.1 |
| 20260901051602 | 65 | 124 | 0.0 | 3.0 | 0.00 | 0.01 | 0.00 | 96 | 1017.3 |
| 20260901050047 | 65 | 124 | 0.0 | 0.0 | 0.00 | 0.01 | 0.00 | 96 | 1017.7 |
| 20260901044555 | 65 | 124 | 0.0 | 0.0 | 0.00 | 0.01 | 0.00 | 96 | 1017.7 |
| 20260901043044 | 65 | 124 | 0.0 | 5.0 | 0.00 | 0.01 | 0.00 | 96 | 1017.3 |
| 20260901041542 | 65 | 122 | 0.0 | 0.0 | 0.00 | 0.01 | 0.00 | 97 | 1017.4 |
| 20260901040056 | 65 | 122 | 0.0 | 0.0 | 0.00 | 0.01 | 0.00 | 97 | 1017.6 |
| 20260901034548 | 65 | 122 | 0.0 | 5.0 | 0.00 | 0.01 | 0.01 | 97 | 1017.4 |
| 20260901033038 | 65 | 134 | 1.0 | 5.0 | 0.00 | 0.01 | 0.01 | 97 | 1017.2 |
| 20260901031535 | 65 | 136 | 0.0 | 0.0 | 0.00 | 0.01 | 0.01 | 97 | 1017.6 |
| 20260901030034 | 65 | 136 | 0.0 | 0.0 | 0.00 | 0.01 | 0.01 | 97 | 1017.8 |
| 20260901024534 | 65 | 136 | 0.0 | 0.0 | 0.00 | 0.01 | 0.01 | 97 | 1018.0 |
| 20260901023044 | 65 | 136 | 0.0 | 0.0 | 0.00 | 0.01 | 0.01 | 97 | 1017.9 |
| 20260901021533 | 65 | 138 | 0.0 | 0.0 | 0.00 | 0.01 | 0.01 | 96 | 1018.0 |
| 20260901020037 | 65 | 138 | 0.0 | 0.0 | 0.00 | 0.01 | 0.01 | 95 | 1018.2 |
| 20260901014534 | 65 | 138 | 0.0 | 0.0 | 0.00 | 0.01 | 0.01 | 94 | 1018.5 |
| 20260901013031 | 65 | 138 | 0.0 | 0.0 | 0.00 | 0.01 | 0.01 | 94 | 1018.4 |
| 20260901011531 | 65 | 138 | 0.0 | 2.0 | 0.00 | 0.01 | 0.01 | 93 | 1018.2 |
| 20260901010031 | 65 | 138 | 0.0 | 2.0 | 0.00 | 0.01 | 0.01 | 93 | 1018.0 |
| 20260901004533 | 65 | 138 | 0.0 | 2.0 | 0.00 | 0.02 | 0.01 | 93 | 1017.8 |
| 20260901003030 | 65 | 132 | 0.0 | 6.0 | 0.00 | 0.02 | 0.01 | 92 | 1017.9 |
| 20260901001529 | 66 | 123 | 1.0 | 4.0 | 0.00 | 0.02 | 0.01 | 92 | 1017.9 |
| 20260901000028 | 66 | 130 | 0.0 | 6.0 | 0.00 | 0.02 | 0.01 | 91 | 1017.9 |
| 20260831234526 | 66 | 114 | 0.0 | 5.0 | 0.00 | 0.02 | 0.01 | 91 | 1018.1 |
| 20260831233025 | 67 | 102 | 3.0 | 6.0 | 0.00 | 0.02 | 0.01 | 90 | 1018.2 |
| 20260831231525 | 67 | 117 | 1.0 | 5.0 | 0.00 | 0.02 | 0.01 | 88 | 1018.2 |
| 20260831230024 | 67 | 151 | 0.0 | 2.0 | 0.00 | 0.02 | 0.01 | 87 | 1018.4 |
| 20260831224523 | 67 | 155 | 0.0 | 3.0 | 0.00 | 0.02 | 0.01 | 87 | 1018.4 |
| 20260831223025 | 68 | 219 | 0.0 | 0.0 | 0.00 | 0.02 | 0.01 | 87 | 1018.5 |
| 20260831221520 | 68 | 229 | 0.0 | 1.0 | 0.00 | 0.02 | 0.01 | 86 | 1018.7 |
| 20260831220020 | 68 | 229 | 0.0 | 0.0 | 0.00 | 0.02 | 0.01 | 86 | 1018.8 |
| 20260831214518 | 69 | 231 | 0.0 | 0.0 | 0.00 | 0.02 | 0.01 | 85 | 1018.8 |
| 20260831213017 | 69 | 231 | 0.0 | 0.0 | 0.00 | 0.02 | 0.01 | 85 | 1018.9 |
| 20260831211517 | 69 | 231 | 0.0 | 0.0 | 0.00 | 0.02 | 0.01 | 85 | 1018.9 |
| 20260831210020 | 69 | 231 | 0.0 | 1.0 | 0.00 | 0.02 | 0.01 | 84 | 1019.0 |
| 20260831204516 | 69 | 231 | 0.0 | 3.0 | 0.01 | 0.04 | 0.01 | 86 | 1019.1 |
| 20260831203016 | 70 | 223 | 1.0 | 5.0 | 0.01 | 0.04 | 0.01 | 86 | 1019.0 |
| 20260831201514 | 69 | 220 | 0.0 | 0.0 | 0.01 | 0.04 | 0.01 | 89 | 1019.0 |
| 20260831200028 | 70 | 220 | 0.0 | 0.0 | 0.01 | 0.04 | 0.01 | 88 | 1019.0 |
| 20260831194512 | 70 | 220 | 0.0 | 2.0 | 0.00 | 0.05 | 0.00 | 87 | 1019.2 |
| 20260831193016 | 70 | 219 | 0.0 | 1.0 | 0.00 | 0.05 | 0.00 | 86 | 1019.5 |
| 20260831191510 | 70 | 219 | 0.0 | 0.0 | 0.00 | 0.05 | 0.00 | 87 | 1019.6 |
| 20260831190010 | 69 | 219 | 0.0 | 1.0 | 0.00 | 0.05 | 0.00 | 87 | 1019.5 |
| 20260831184507 | 69 | 227 | 0.0 | 0.0 | 0.00 | 0.05 | 0.00 | 87 | 1019.8 |
| 20260831183005 | 70 | 229 | 0.0 | 0.0 | 0.00 | 0.05 | 0.00 | 86 | 1019.9 |
| 20260831181504 | 71 | 242 | 0.0 | 0.0 | 0.00 | 0.05 | 0.00 | 85 | 1020.0 |
| 20260831180003 | 71 | 223 | 0.0 | 0.0 | 0.00 | 0.05 | 0.00 | 84 | 1020.3 |
| 20260831174509 | 71 | 234 | 0.0 | 3.0 | 0.00 | 0.05 | 0.00 | 82 | 1020.5 |
| 20260831173002 | 72 | 152 | 0.0 | 4.0 | 0.00 | 0.05 | 0.00 | 81 | 1020.3 |
| 20260831171600 | 71 | 138 | 1.0 | 6.0 | 0.00 | 0.05 | 0.00 | 82 | 1020.3 |
| 20260831164611 | 70 | 130 | 0.0 | 4.0 | 0.00 | 0.05 | 0.00 | 83 | 1020.8 |
| 20260831163057 | 71 | 144 | 0.0 | 5.0 | 0.00 | 0.05 | 0.00 | 82 | 1020.8 |
| 20260831161557 | 71 | 134 | 0.0 | 3.0 | 0.00 | 0.05 | 0.00 | 83 | 1020.8 |
| 20260831160056 | 71 | 141 | 2.0 | 6.0 | 0.00 | 0.05 | 0.00 | 81 | 1020.9 |
| 20260831154556 | 71 | 124 | 0.0 | 3.0 | 0.00 | 0.05 | 0.00 | 82 | 1020.8 |
| 20260831153057 | 70 | 105 | 5.0 | 8.0 | 0.00 | 0.05 | 0.00 | 81 | 1020.8 |
| 20260831151557 | 70 | 182 | 0.0 | 4.0 | 0.00 | 0.05 | 0.00 | 85 | 1020.9 |
| 20260831150051 | 70 | 191 | 0.0 | 4.0 | 0.00 | 0.05 | 0.00 | 85 | 1021.0 |
| 20260831144557 | 69 | 124 | 0.0 | 4.0 | 0.00 | 0.05 | 0.00 | 84 | 1021.0 |
| 20260831143057 | 69 | 97 | 1.0 | 5.0 | 0.00 | 0.05 | 0.00 | 86 | 1020.9 |
| 20260831141546 | 69 | 120 | 1.0 | 5.0 | 0.00 | 0.05 | 0.00 | 88 | 1020.8 |
| 20260831140044 | 68 | 228 | 1.0 | 5.0 | 0.00 | 0.05 | 0.00 | 90 | 1020.9 |
| 20260831134541 | 67 | 126 | 0.0 | 4.0 | 0.00 | 0.05 | 0.00 | 92 | 1020.9 |
| 20260831133038 | 66 | 231 | 0.0 | 0.0 | 0.00 | 0.05 | 0.00 | 95 | 1020.9 |
| 20260831131535 | 66 | 274 | 0.0 | 0.0 | 0.00 | 0.05 | 0.00 | 98 | 1021.2 |
| 20260831130034 | 65 | 274 | 0.0 | 0.0 | 0.00 | 0.05 | 0.00 | 98 | 1021.1 |
| 20260831124535 | 65 | 274 | 0.0 | 0.0 | 0.00 | 0.05 | 0.00 | 98 | 1021.1 |
| 20260831123032 | 65 | 274 | 0.0 | 0.0 | 0.00 | 0.05 | 0.00 | 99 | 1021.2 |
| 20260831121532 | 65 | 274 | 0.0 | 0.0 | 0.00 | 0.05 | 0.00 | 99 | 1020.9 |
| 20260831120038 | 65 | 274 | 0.0 | 0.0 | 0.00 | 0.05 | 0.00 | 99 | 1021.2 |
| 20260831114534 | 65 | 274 | 0.0 | 0.0 | 0.00 | 0.05 | 0.00 | 99 | 1021.2 |
| 20260831113028 | 64 | 274 | 0.0 | 0.0 | 0.00 | 0.05 | 0.00 | 99 | 1021.1 |
| 20260831111526 | 64 | 274 | 0.0 | 0.0 | 0.00 | 0.05 | 0.00 | 99 | 1021.0 |
| 20260831110024 | 64 | 274 | 0.0 | 0.0 | 0.00 | 0.05 | 0.00 | 99 | 1020.9 |
| 20260831104523 | 63 | 274 | 0.0 | 0.0 | 0.00 | 0.05 | 0.00 | 99 | 1020.8 |
| 20260831103023 | 63 | 274 | 0.0 | 0.0 | 0.00 | 0.05 | 0.00 | 99 | 1020.7 |
| 20260831101523 | 63 | 274 | 0.0 | 0.0 | 0.00 | 0.05 | 0.00 | 99 | 1020.4 |
| 20260831100022 | 63 | 274 | 0.0 | 0.0 | 0.00 | 0.05 | 0.00 | 99 | 1020.4 |
| 20260831094521 | 63 | 274 | 0.0 | 0.0 | 0.00 | 0.05 | 0.00 | 99 | 1020.4 |
| 20260831093033 | 63 | 274 | 0.0 | 0.0 | 0.00 | 0.05 | 0.00 | 99 | 1020.3 |
| 20260831091520 | 63 | 274 | 0.0 | 0.0 | 0.00 | 0.05 | 0.00 | 99 | 1020.3 |
| 20260831090019 | 63 | 274 | 0.0 | 0.0 | 0.00 | 0.05 | 0.00 | 99 | 1020.2 |
| 20260831084522 | 63 | 274 | 0.0 | 0.0 | 0.00 | 0.05 | 0.00 | 99 | 1020.3 |
| 20260831083021 | 63 | 274 | 0.0 | 0.0 | 0.00 | 0.05 | 0.00 | 99 | 1020.1 |
| 20260831081518 | 63 | 274 | 0.0 | 0.0 | 0.00 | 0.05 | 0.00 | 99 | 1020.3 |
| 20260831080021 | 63 | 274 | 0.0 | 0.0 | 0.00 | 0.05 | 0.00 | 99 | 1020.2 |
| 20260831074517 | 64 | 274 | 0.0 | 0.0 | 0.00 | 0.05 | 0.00 | 99 | 1020.3 |
| 20260831073016 | 64 | 274 | 0.0 | 0.0 | 0.00 | 0.05 | 0.00 | 99 | 1020.2 |